Location: Milton Keynes
(52.0316°N, 0.7531°W)
Time: 21:36:07
(UTC+01:00)

ISS - Visible Passes

Search period start: 17 May 2021 00:00
Search period end: 27 May 2021 00:00
Orbit: 417 x 422 km, 51.6° (Epoch: 17 May)

Date Brightness Start Highest point End Pass type
(mag) Time Alt. Az. Time Alt. Az. Time Alt. Az.
17 May -3.9 01:04:31 10° W 01:07:54 81° S 01:11:17 10° E visible
17 May -3.2 02:41:24 10° W 02:44:59 33° S 02:47:37 10° SE visible
17 May -3.8 22:40:22 10° WSW 22:43:41 59° SSE 22:47:02 10° E visible
18 May -3.9 00:17:04 10° W 00:20:27 86° S 00:22:53 18° E visible
18 May -2.5 01:53:53 10° W 01:55:47 28° WSW 01:55:47 28° WSW visible
18 May -3.5 21:53:03 10° SW 21:56:17 46° SSE 21:59:32 10° E visible
18 May -3.9 23:29:36 10° W 23:32:59 86° S 23:36:22 10° E visible
19 May -3.6 01:06:25 10° W 01:09:23 54° SW 01:09:23 54° SW visible
19 May -3.9 22:42:09 10° W 22:45:31 81° S 22:48:54 10° E visible
20 May -3.9 00:18:56 10° W 00:22:19 71° SSW 00:23:12 45° ESE visible
20 May -1.2 01:55:57 10° W 01:56:07 11° W 01:56:07 11° W visible
20 May -3.8 21:54:42 10° WSW 21:58:04 71° SSE 22:01:26 10° E visible
20 May -3.9 23:31:28 10° W 23:34:51 81° S 23:37:06 19° ESE visible
21 May -2.2 01:08:21 10° W 01:10:02 23° WSW 01:10:02 23° WSW visible
21 May -3.8 22:44:00 10° W 22:47:23 86° S 22:50:46 10° E visible
22 May -3.5 00:20:49 10° W 00:23:59 45° SSW 00:23:59 45° SSW visible
22 May -3.8 21:56:32 10° W 21:59:54 86° S 22:03:18 10° E visible
22 May -3.7 23:33:20 10° W 23:36:40 58° SSW 23:37:58 32° SE visible
23 May -1.2 01:10:36 10° W 01:10:54 11° WSW 01:10:54 11° WSW visible
23 May -3.8 22:45:51 10° W 22:49:13 71° SSW 22:51:59 14° ESE visible
24 May -2.2 00:22:51 10° W 00:24:55 23° SW 00:24:55 23° SW visible
24 May -3.8 21:58:22 10° W 22:01:45 80° S 22:05:08 10° E visible
24 May -3.0 23:35:15 10° W 23:38:21 34° SSW 23:38:57 31° S visible
25 May -3.3 22:47:42 10° W 22:50:58 45° SSW 22:53:01 19° SE visible
26 May -1.2 00:25:33 10° WSW 00:25:57 11° WSW 00:25:57 11° WSW visible
26 May -3.6 22:00:12 10° W 22:03:32 58° SSW 22:06:51 10° ESE visible
26 May -2.0 23:37:28 10° W 23:39:53 18° SW 23:40:02 18° SSW visible
